Location: Krakow
(50.0830°N, 19.9170°E)
Time: 19:20:44
(UTC+01:00)

Transit 2A - Pass Details

Date: 12 February 2023
Orbit: 591 x 964 km, 66.7° (Epoch: 21 March)

Event Time Altitude Azimuth Distance (km) Brightness Sun altitude
Rises 15:38:51 0° 231° (SW) 3,068 11.5 9.6°
Reaches altitude 10° 15:41:07 10° 236° (SW) 2,208 13.1 9.3°
Maximum altitude 15:46:05 54° 314° (NW) 944 6.8 8.7°
Drops below altitude 10° 15:51:39 10° 32° (NNE) 2,470 8.1 7.9°
Sets 15:54:19 0° 37° (NE) 3,468 8.8 7.6°
